User: anonymous   Login
Location: Castro Valley
(37.6940°N, 122.0850°W)
Time: 00:22:58
(UTC-08:00)
Language:

PANSAT - Orbit

View from above orbital plane
View from above orbital plane
View from above satellite
View from above satellite

Ground track
Ground track

The orbit data is extracted from the following two-line orbital elements,

1 25520U 98064B   15025.58911824  .00003218  00000-0  11631-3 0  6662
2 25520 028.4575 164.3205 0004469 045.1627 056.3521 15.25192367900604
Epoch (UTC): 25 January 2015 14:08:19
Eccentricity: 0.0004469
inclination: 28.4575°
perigee height: 487 km
apogee height: 493 km
right ascension of ascending node: 164.3205°
argument of perigee: 45.1627°
revolutions per day: 15.25192367
mean anomaly at epoch: 56.3521°
orbit number at epoch: 90060

The dashed part of the orbit path shows where the satellite is in the earth's shadow,  

DLR